[Iaude] MPEC V56: 2023 VM1 [a=1.72,e=0.48,i=2.3,H=24.5]
    mpec at marsden.cfa.harvard.edu 
    mpec at marsden.cfa.harvard.edu
       
    Sun Nov  5 18:49:39 EST 2023
    
    
  
M.P.E.C. 2023-V56                              Issued 2023 November 5, 23:47 UT
     The Minor Planet Electronic Circulars contain information on unusual
         minor planets, routine data on comets and natural satellites,
         and occasional editorial announcements.  They are published
    on behalf of Division F of the International Astronomical Union by the
          Minor Planet Center, Smithsonian Astrophysical Observatory,
                          Cambridge, MA 02138, U.S.A.
			  
             Prepared using the Tamkin Foundation Computer Network
                              MPC at CFA.HARVARD.EDU
            URL https://www.minorplanetcenter.net/    ISSN 1523-6714
                                    2023 VM1                                    
Observations:
     K23V01M* C2023 11 04.37960800 39 27.469+13 23 23.28         21.36wXEV056F51
     K23V01M  C2023 11 04.39113100 39 25.170+13 23 10.77         21.55wXEV056F51
     K23V01M  C2023 11 04.41427100 39 20.553+13 22 45.02         21.44wXEV056F51
     K23V01M  C2023 11 04.51952500 39 00.268+13 20 44.04         21.13GVEV056F51
     K23V01M  C2023 11 04.52034100 39 00.117+13 20 43.38         20.97GVEV056F51
     K23V01M KC2023 11 05.11203800 37 22.96 +13 09 34.5          21.0 GXEV056858
     K23V01M KC2023 11 05.12007000 37 21.37 +13 09 25.2          20.4 GXEV056858
     K23V01M KC2023 11 05.12810300 37 19.72 +13 09 17.0          21.0 GXEV056858
     K23V01M KC2023 11 05.14905100 37 14.07 +13 08 49.0          20.8 GVEV056H21
     K23V01M KC2023 11 05.15194100 37 13.48 +13 08 45.9          21.2 GVEV056H21
     K23V01M KC2023 11 05.15483000 37 12.88 +13 08 42.5          21.0 GVEV056H21
     K23V01M KC2023 11 05.15772000 37 12.31 +13 08 39.3          21.1 GVEV056H21
     K23V01M 1C2023 11 05.27684300 36 49.273+13 06 29.41         20.88GVEV056G96
     K23V01M 1C2023 11 05.28203700 36 48.211+13 06 23.29         21.03GVEV056G96
     K23V01M 1C2023 11 05.28724400 36 47.153+13 06 16.78         21.05GVEV056G96
     K23V01M pC2023 11 05.88408000 34 58.66 +12 54 10.5          20.6 GVEV056L01
     K23V01M pC2023 11 05.88744100 34 58.01 +12 54 05.8          20.8 GVEV056L01
     K23V01M pC2023 11 05.89436400 34 56.55 +12 53 57.7          20.5 GVEV056L01
     K23V01M pC2023 11 05.90136800 34 55.00 +12 53 48.2          20.8 GVEV056L01
Observer details:
858 Tebbutt Observatory, Edgewood.  Observer F. B. Zoltowski.  0.51-m f/8.1
    Schmidt-Cassegrain + CCD.
F51 Pan-STARRS 1, Haleakala.  Observers J. Bulger, T. Lowe, P. Minguez, A.
    Schultz, I. Smith.  Measurers K. Chambers, T. de Boer, J. Fairlamb, H.
    Gao, M. Huber, C.-C. Lin, E. Magnier, Y. Ramanjooloo, R. Wainscoat, R.
    Weryk.  1.8-m Ritchey-Chretien + CCD.
G96 Mt. Lemmon Survey.  Observer J. B. Fazekas.  Measurers E. C. Beshore, D.
    Fay, J. B. Fazekas, D. C. Fuls, A. R. Gibbs, A. D. Grauer, H. Groeller, J.
    K. Hogan, R. A. Kowalski, S. M. Larson, G. J. Leonard, D. Rankin, R. L.
    Seaman, F. C. Shelly, K. W. Wierzchos.  1.5-m reflector + 10K CCD.
H21 Astronomical Research Observatory, Westfield.  Observer R. Holmes.
    Measurers T. Linder, R. Holmes, L. Horn.  1.3-m f/4.0 astrograph + CCD.
L01 Visnjan Observatory, Tican.  Observer K. Korlevic.  1.0-m f/2.9 reflector
    + CCD.
Orbital elements:
2023 VM1                                                 Earth MOID = 0.0025 AU
Epoch 2023 Sept. 13.0 TT = JDT 2460200.5                Veres                   
M 314.15626              (2000.0)            P               Q                  
n   0.43717670     Peri.  221.39477     -0.22383117     -0.97399415             
a   1.7193517      Node   241.56669     +0.90438638     -0.19412394             
e   0.4794757      Incl.    2.29035     +0.36329723     -0.11683878             
P   2.25           H   24.57          G   0.15           U   9                  
Residuals in seconds of arc
231104 F51  0.1+  0.4-    231105 858  0.0   0.1-    231105 G96  0.1+  0.0
231104 F51  0.2+  0.3-    231105 H21  0.1-  0.1-    231105 L01  0.4-  0.2+
231104 F51  0.1+  0.4-    231105 H21  0.0   0.1+    231105 L01  0.5+  0.4-
231104 F51  0.1+  0.4-    231105 H21  0.1-  0.1+    231105 L01  0.6+  0.1+
231104 F51  0.2+  0.1-    231105 H21  0.2+  0.2+    231105 L01  0.3-  0.7-
231105 858  0.2-  0.2-    231105 G96  0.3-  0.1+
231105 858  0.3+  0.7-    231105 G96  0.1-  0.2+
Ephemeris:
2023 VM1                 a,e,i = 1.72, 0.48, 2                   q = 0.8950
Date    TT    R. A. (2000) Decl.     Delta      r    Elong.  Phase     V
2023 10 06    01 22 15.3 +16 13 48   0.3080  1.3003   165.3    11.2    23.3
...
2023 10 21    01 08 05.3 +15 49 40   0.2004  1.1938   170.5     7.9    22.0
...
2023 10 29    00 54 41.5 +14 50 40   0.1522  1.1389   161.5    16.1    21.6
...
2023 11 04    00 40 32.7 +13 30 13   0.1194  1.0992   152.4    24.7    21.3
2023 11 05    00 37 40.8 +13 12 13   0.1141  1.0927   150.8    26.3    21.2
2023 11 06    00 34 37.5 +12 52 31   0.1089  1.0863   149.0    28.0    21.2
...
2023 11 12    00 10 34.3 +10 02 29   0.07909 1.0491   136.8    40.2    20.8
...
2023 11 20    23 00 40.8 +00 32 26   0.04364 1.0036   109.4    68.3    20.2
...
2023 12 05    15 42 05.8 -28 01 21   0.05170 0.9357    14.9   164.3    30.7
M. P. C. Staff               (C) Copyright 2023 MPC           M.P.E.C. 2023-V56
    
    
More information about the Iaude
mailing list